Regional Weather Roundup
Issued by NWS

Home | Current Version | Previous Version | Text Only | Print | Product List | Glossary On
Versions: 1 2 3 4 5 6 7 8 9 10 11 12 13 14 15 16 17 18 19 20 21 22 23 24 25 26 27 28 29 30 31 32 33 34 35 36 37 38 39 40 41 42 43 44 45 46 47 48 49 50
000
ASCA44 KEWX 231020
RWRMX

LATIN AMERICA AND CARIBBEAN REGIONAL WEATHER ROUNDUP
NATIONAL WEATHER SERVICE AUSTIN/SAN ANTONIO TX
500 AM CDT THU MAR 23 2017

NOTE: "FAIR" INDICATED FEW OR NO CLOUDS BELOW 12,000 FEET WITH NO
SIGNIFICANT WEATHER AND/OR OBSTRUCTIONS TO VISIBILITY.

BAJA CALIFORNIA

CITY           SKY/WX    TMP DP  RH WIND       PRES   REMARKS
S.J. DEL CABO    N/A    N/A N/A N/A MISG        N/A
TIJUANA        MOCLDY    55  45  67 W13       30.08R

NORTHWESTERN MEXICO

CITY           SKY/WX    TMP DP  RH WIND       PRES   REMARKS
HERMOSILLO     CLEAR     63  54  72 CALM      29.93

NORTHEASTERN MEXICO

CITY           SKY/WX    TMP DP  RH WIND       PRES   REMARKS
MONCLOVA         N/A    N/A N/A N/A MISG        N/A
MONTERREY      CLOUDY    66  61  82 E12       29.99F
REYNOSA          N/A    N/A N/A N/A MISG        N/A
CD. VICTORIA     N/A    N/A N/A N/A MISG        N/A

WESTERN MEXICO

CITY           SKY/WX    TMP DP  RH WIND       PRES   REMARKS
AGUASCALIENTES CLEAR     55  28  35 N5        30.24
COLIMA           N/A    N/A N/A N/A MISG        N/A
DEL BAJIO      CLEAR     55  34  44 E5        30.26
GUADALAJARA    CLEAR     57  37  47 CALM      30.13
MAZATLAN       CLEAR     68  66  94 CALM      29.93F
P. VALLARTA    PTCLDY    66  66 100 NE3       29.89F
URUAPAN          N/A    N/A N/A N/A MISG        N/A
ZACATECAS        N/A    N/A N/A N/A MISG        N/A

CENTRAL MEXICO

CITY           SKY/WX    TMP DP  RH WIND       PRES   REMARKS
CUERNAVACA       N/A    N/A N/A N/A MISG        N/A
MEXICO CITY    CLEAR     46  28  49 E5        30.32F WCI  44
MORELIA          N/A    N/A N/A N/A MISG        N/A
POZA RICA        N/A    N/A N/A N/A MISG        N/A
QUERETARO      CLEAR     52  46  82 E7        30.29F
S. LUIS POTOSI   N/A    N/A N/A N/A MISG        N/A
TOLUCA         CLEAR     36  21  55 CALM      30.39S

SOUTHERN MEXICO

CITY           SKY/WX    TMP DP  RH WIND       PRES   REMARKS
ACAPULCO       PTCLDY    73  72  94 N5        29.91F
B. DE HUATULCO   N/A    N/A N/A N/A MISG        N/A
P. ESCONDIDO     N/A    N/A N/A N/A MISG        N/A
VERACRUZ         N/A    N/A N/A N/A MISG        N/A

YUCATAN PENINSULA

CITY           SKY/WX    TMP DP  RH WIND       PRES   REMARKS
CAMPECHE         N/A    N/A N/A N/A MISG        N/A
CANCUN         PTCLDY    66  61  82 N2        30.07S
CHETUMAL         N/A    N/A N/A N/A MISG        N/A
CD. DEL CARMEN   N/A    N/A N/A N/A MISG        N/A
COZUMEL          N/A    N/A N/A N/A MISG        N/A
MERIDA         CLEAR     70  63  78 E6        30.08S
MINATITLAN       N/A    N/A N/A N/A MISG        N/A
TAPACHULA      CLEAR     70  66  88 CALM      29.89R
VILLAHERMOSA   MOCLDY    68  68 100 CALM      30.05

CENTRAL AMERICA

CITY           SKY/WX    TMP DP  RH WIND       PRES   REMARKS

CARIBBEAN

CITY           SKY/WX    TMP DP  RH WIND       PRES   REMARKS
ARUBA          PTCLDY    81  75  83 E12       29.86S
CURACAO        PTCLDY    79  75  89 E10       29.86S
KINGSTON       PTCLDY    75  68  78 N12       29.94R
NASSAU           N/A     59  54  82 CALM      30.09F
SAN JUAN       MOCLDY    75  72  88 CALM      29.95R
SANTO DOMINGO  PTCLDY    72  70  94 N5        29.92S
ST. CROIX      CLOUDY    79  73  83 E12       29.95
ST. KITTS      PTCLDY    77  72  83 E5        29.94
ST. MAARTEN    PTCLDY    77  75  94 SE7       29.94F
ST. THOMAS     CLOUDY    77  75  94 SE13      29.95

$$




USA.gov is the U.S. government's official web portal to all federal, state and local government web resources and services.